Location: Evergreen Manor
(41.4083°N, 81.4939°W)
Time: 05:25:25
(UTC+00:00)

Cosmos 1869 Rocket - Pass Details

Date: 11 December 2019
Orbit: 606 x 632 km, 82.5° (Epoch: 18 January)

Event Time Altitude Azimuth Distance (km) Brightness Sun altitude
Rises 11:18:56 0° 209° (SSW) 2,848 6.8 -15.0°
Reaches altitude 10° 11:21:18 10° 219° (SW) 1,950 5.9 -14.6°
Maximum altitude 11:25:12 32° 284° (WNW) 1,041 4.2 -13.9°
Drops below altitude 10° 11:29:08 10° 348° (NNW) 1,972 5.8 -13.2°
Sets 11:31:33 0° 359° (N) 2,885 6.8 -12.8°
